| time (UTC) | temp F | wind direction | speed MPH | gust MPH | rain 1hr in | rain 24hr in | rain mn in | humidity % | barometer mb |
| 20260505101148 | 57 | 0 | 0.0 | 0.0 | 0.00 | 0.00 | 0.00 | 77 | 1014.6 |
| 20260505095649 | 58 | 0 | 0.0 | 0.0 | 0.00 | 0.00 | 0.00 | 76 | 1014.5 |
| 20260505094148 | 58 | 0 | 0.0 | 0.0 | 0.00 | 0.00 | 0.00 | 75 | 1014.3 |
| 20260505092649 | 58 | 0 | 0.0 | 0.0 | 0.00 | 0.00 | 0.00 | 75 | 1014.4 |
| 20260505091149 | 59 | 0 | 0.0 | 0.0 | 0.00 | 0.00 | 0.00 | 73 | 1014.3 |
| 20260505085649 | 59 | 0 | 0.0 | 0.0 | 0.00 | 0.00 | 0.00 | 73 | 1014.1 |
| 20260505084149 | 60 | 0 | 0.0 | 0.0 | 0.00 | 0.00 | 0.00 | 72 | 1014.1 |
| 20260505082649 | 60 | 0 | 0.0 | 0.0 | 0.00 | 0.00 | 0.00 | 71 | 1014.2 |
| 20260505081149 | 61 | 0 | 0.0 | 3.0 | 0.00 | 0.00 | 0.00 | 71 | 1014.2 |
| 20260505075649 | 61 | 0 | 1.0 | 3.0 | 0.00 | 0.00 | 0.00 | 70 | 1014.0 |
| 20260505074149 | 61 | 0 | 0.0 | 3.0 | 0.00 | 0.00 | 0.00 | 70 | 1013.9 |
| 20260505072649 | 62 | 0 | 1.0 | 4.0 | 0.00 | 0.00 | 0.00 | 69 | 1013.9 |
| 20260505071149 | 62 | 0 | 0.0 | 4.0 | 0.00 | 0.00 | 0.00 | 69 | 1013.7 |
| 20260505065649 | 62 | 0 | 0.0 | 3.0 | 0.00 | 0.00 | 0.00 | 69 | 1013.7 |
| 20260505064149 | 62 | 0 | 0.0 | 1.0 | 0.00 | 0.00 | 0.00 | 69 | 1013.7 |
| 20260505062649 | 63 | 0 | 0.0 | 2.0 | 0.00 | 0.00 | 0.00 | 68 | 1013.7 |
| 20260505061149 | 63 | 0 | 1.0 | 6.0 | 0.00 | 0.00 | 0.00 | 68 | 1013.8 |
| 20260505055649 | 64 | 0 | 1.0 | 2.0 | 0.00 | 0.00 | 0.00 | 67 | 1013.7 |
| 20260505054149 | 64 | 0 | 1.0 | 6.0 | 0.00 | 0.00 | 0.00 | 67 | 1013.7 |
| 20260505052649 | 64 | 0 | 1.0 | 3.0 | 0.00 | 0.00 | 0.00 | 67 | 1013.9 |
| 20260505051149 | 64 | 0 | 0.0 | 0.0 | 0.00 | 0.00 | 0.00 | 68 | 1013.8 |
| 20260505041149 | 64 | 0 | 1.0 | 4.0 | 0.00 | 0.00 | 0.00 | 68 | 1013.8 |
| 20260505035649 | 64 | 0 | 0.0 | 0.0 | 0.00 | 0.00 | 0.00 | 67 | 1013.6 |
| 20260505034149 | 65 | 0 | 0.0 | 2.0 | 0.00 | 0.00 | 0.00 | 65 | 1013.6 |
| 20260505032649 | 65 | 0 | 1.0 | 8.0 | 0.00 | 0.00 | 0.00 | 62 | 1013.4 |
| 20260505031149 | 65 | 0 | 1.0 | 6.0 | 0.00 | 0.00 | 0.00 | 60 | 1013.4 |
| 20260505025649 | 65 | 0 | 0.0 | 0.0 | 0.00 | 0.00 | 0.00 | 59 | 1013.3 |
| 20260505024149 | 65 | 0 | 0.0 | 0.0 | 0.00 | 0.00 | 0.00 | 61 | 1013.2 |
| 20260505022649 | 65 | 0 | 0.0 | 0.0 | 0.00 | 0.00 | 0.00 | 61 | 1012.9 |
| 20260505021149 | 65 | 0 | 0.0 | 0.0 | 0.00 | 0.00 | 0.00 | 61 | 1012.6 |
| 20260505015649 | 65 | 0 | 0.0 | 0.0 | 0.00 | 0.00 | 0.00 | 62 | 1012.6 |
| 20260505014149 | 65 | 0 | 0.0 | 0.0 | 0.00 | 0.00 | 0.00 | 59 | 1012.6 |
| 20260505012649 | 65 | 0 | 0.0 | 0.0 | 0.00 | 0.00 | 0.00 | 60 | 1012.5 |
| 20260505011149 | 65 | 0 | 0.0 | 0.0 | 0.00 | 0.00 | 0.00 | 63 | 1012.4 |
| 20260505005649 | 65 | 0 | 0.0 | 0.0 | 0.00 | 0.00 | 0.00 | 57 | 1012.4 |
| 20260505004149 | 66 | 0 | 0.0 | 0.0 | 0.00 | 0.00 | 0.00 | 55 | 1012.3 |
| 20260505002649 | 67 | 0 | 0.0 | 0.0 | 0.00 | 0.00 | 0.00 | 52 | 1012.2 |
| 20260505001149 | 68 | 0 | 0.0 | 0.0 | 0.00 | 0.00 | 0.00 | 49 | 1012.1 |
| 20260504235649 | 70 | 0 | 0.0 | 0.0 | 0.00 | 0.00 | 0.00 | 47 | 1012.0 |
| 20260504234149 | 71 | 0 | 0.0 | 1.0 | 0.00 | 0.00 | 0.00 | 46 | 1012.0 |
| 20260504232649 | 72 | 153 | 0.0 | 0.0 | 0.00 | 0.00 | 0.00 | 45 | 1011.9 |
| 20260504231149 | 74 | 141 | 0.0 | 0.0 | 0.00 | 0.00 | 0.00 | 42 | 1011.8 |
| 20260504225649 | 74 | 141 | 0.0 | 1.0 | 0.00 | 0.00 | 0.00 | 42 | 1011.8 |
| 20260504224149 | 74 | 180 | 0.0 | 0.0 | 0.00 | 0.00 | 0.00 | 41 | 1011.7 |
| 20260504222649 | 75 | 291 | 0.0 | 0.0 | 0.00 | 0.00 | 0.00 | 41 | 1011.8 |
| 20260504221149 | 75 | 153 | 0.0 | 1.0 | 0.00 | 0.00 | 0.00 | 40 | 1011.8 |
| 20260504215649 | 76 | 134 | 0.0 | 1.0 | 0.00 | 0.00 | 0.00 | 38 | 1011.6 |
| 20260504214149 | 77 | 128 | 0.0 | 0.0 | 0.00 | 0.00 | 0.00 | 38 | 1011.7 |
| 20260504212649 | 79 | 202 | 0.0 | 2.0 | 0.00 | 0.00 | 0.00 | 37 | 1011.7 |
| 20260504211149 | 79 | 123 | 0.0 | 7.0 | 0.00 | 0.00 | 0.00 | 32 | 1011.7 |
| 20260504205649 | 80 | 328 | 1.0 | 0.0 | 0.00 | 0.00 | 0.00 | 36 | 1011.7 |
| 20260504204149 | 79 | 85 | 0.0 | 0.0 | 0.00 | 0.00 | 0.00 | 34 | 1011.8 |
| 20260504202650 | 79 | 326 | 0.0 | 4.0 | 0.00 | 0.00 | 0.00 | 36 | 1011.8 |
| 20260504201149 | 78 | 91 | 0.0 | 2.0 | 0.00 | 0.00 | 0.00 | 34 | 1011.9 |
| 20260504195649 | 78 | 192 | 0.0 | 3.0 | 0.00 | 0.00 | 0.00 | 33 | 1012.2 |
| 20260504194149 | 78 | 302 | 0.0 | 0.0 | 0.00 | 0.00 | 0.00 | 33 | 1012.4 |
| 20260504192650 | 77 | 284 | 0.0 | 4.0 | 0.00 | 0.00 | 0.00 | 33 | 1012.6 |
| 20260504191149 | 76 | 154 | 0.0 | 1.0 | 0.00 | 0.00 | 0.00 | 30 | 1012.7 |
| 20260504185650 | 76 | 246 | 0.0 | 7.0 | 0.00 | 0.00 | 0.00 | 30 | 1013.1 |
| 20260504184150 | 76 | 66 | 1.0 | 8.0 | 0.00 | 0.00 | 0.00 | 33 | 1013.3 |
| 20260504182650 | 75 | 247 | 1.0 | 0.0 | 0.00 | 0.00 | 0.00 | 35 | 1013.4 |
| 20260504181150 | 74 | 279 | 0.0 | 3.0 | 0.00 | 0.00 | 0.00 | 35 | 1013.7 |
| 20260504175650 | 73 | 302 | 0.0 | 0.0 | 0.00 | 0.00 | 0.00 | 34 | 1013.8 |
| 20260504174150 | 73 | 288 | 0.0 | 2.0 | 0.00 | 0.00 | 0.00 | 34 | 1014.1 |
| 20260504172650 | 73 | 288 | 1.0 | 7.0 | 0.00 | 0.00 | 0.00 | 33 | 1014.1 |
| 20260504171150 | 73 | 11 | 2.0 | 7.0 | 0.00 | 0.00 | 0.00 | 34 | 1014.3 |
| 20260504151150 | 68 | 246 | 1.0 | 11.0 | 0.00 | 0.00 | 0.00 | 42 | 1015.6 |
| 20260504141150 | 65 | 271 | 0.0 | 5.0 | 0.00 | 0.00 | 0.00 | 49 | 1015.7 |